Richmond, KY

8:45 AM EDT on June 25, 2017 (GMT -0400)
Richmond

Weather History for KI39 - October, 2012

Change the Weather History Date:

Saturday, October 13, 2012

  Actual Average (KLOZ) Record (KLOZ)
Temperature  
Mean Temperature 57 °F -  
Max Temperature 75 °F 70 °F 86 °F (2008)
Min Temperature 39 °F 44 °F 26 °F (1988)
Degree Days  
Heating Degree Days 8    
Growing Degree Days 7 (Base 50)    
Moisture  
Dew Point 49 °F    
Average Humidity 72    
Maximum Humidity 100    
Minimum Humidity 50    
Precipitation  
Precipitation 0.00 in - - ()
Sea Level Pressure  
Sea Level Pressure 30.23 in    
Wind  
Wind Speed 5 mph (South)    
Max Wind Speed 14 mph    
Max Gust Speed 22 mph    
Visibility 7 miles    
Events      
Averages and records for this station are not official NWS values.
T = Trace of Precipitation, MM = Missing Value Source: NWS Daily Summary

Daily Weather History Graph

Daily Weather History Graph

Search for Another Location

Airport or City:

Trip Planner

Search our weather history database for the weather conditions in past years. The results will help you decide how hot, cold, wet, or windy it might be!

Date:

Astronomy

Oct. 13, 2012 Rise Set
Actual Time 7:44 AM EDT 7:02 PM EDT
Civil Twilight 7:17 AM EDT 7:28 PM EDT
Nautical Twilight 6:47 AM EDT 7:58 PM EDT
Astronomical Twilight 6:17 AM EDT 8:29 PM EDT
Moon 5:34 AM EDT (10/13) 5:44 PM EDT (10/13)
Length of Visible Light 12h 10m
Length of Day
11h 17m
Waning Crescent, 5% of the Moon is Illuminated
Oct 13
Waning Crescent
Oct 15
New
Oct 21
First Quarter
Oct 29
Full
Nov 6
Last Quarter

Hourly Weather History & Observations

Time (EDT) Temp. Windchill Dew Point Humidity Pressure Visibility Wind Dir Wind Speed Gust Speed Precip Events Conditions
12:15 AM 46.4 °F 45.2 °F 42.8 °F 87% 30.33 in 0.2 mi East 3.5 mph - N/A   Unknown
12:35 AM 48.2 °F - 42.8 °F 82% 30.32 in 0.2 mi East 3.5 mph - N/A   Unknown
1:15 AM 44.6 °F 43.1 °F 41.0 °F 87% 30.31 in 0.2 mi East 3.5 mph - N/A   Unknown
1:35 AM 44.6 °F 43.1 °F 41.0 °F 87% 30.31 in 0.5 mi East 3.5 mph - N/A   Unknown
2:15 AM 42.8 °F 40.1 °F 41.0 °F 93% 30.29 in 0.2 mi SE 4.6 mph - N/A   Unknown
2:35 AM 44.6 °F 43.1 °F 41.0 °F 87% 30.29 in 0.2 mi ESE 3.5 mph - N/A   Unknown
3:15 AM 44.6 °F - 41.0 °F 87% 30.29 in 0.2 mi Calm Calm - N/A   Unknown
3:35 AM 44.6 °F - 41.0 °F 87% 30.29 in 0.5 mi Calm Calm - N/A   Unknown
3:55 AM 46.4 °F - 41.0 °F 81% 30.29 in 1.2 mi Calm Calm - N/A   Unknown
4:15 AM 42.8 °F - 41.0 °F 93% 30.29 in 7.0 mi Calm Calm - N/A   Clear
4:35 AM 41.0 °F 39.0 °F 41.0 °F 100% 30.28 in 1.2 mi ESE 3.5 mph - N/A   Unknown
4:55 AM 42.8 °F - 41.0 °F 93% 30.28 in 3.0 mi Calm Calm - N/A   Clear
5:15 AM 42.8 °F - 41.0 °F 93% 30.28 in 10.0 mi Calm Calm - N/A   Clear
5:35 AM 41.0 °F - 39.2 °F 93% 30.29 in 10.0 mi Calm Calm - N/A   Clear
5:55 AM 41.0 °F - 39.2 °F 93% 30.29 in 10.0 mi Calm Calm - N/A   Clear
6:15 AM 42.8 °F - 41.0 °F 93% 30.28 in 10.0 mi Calm Calm - N/A   Clear
6:35 AM 41.0 °F - 39.2 °F 93% 30.29 in 10.0 mi Calm Calm - N/A   Clear
7:15 AM 41.0 °F 39.0 °F 39.2 °F 93% 30.28 in 1.5 mi ESE 3.5 mph - N/A   Unknown
7:55 AM 39.2 °F 37.0 °F 39.2 °F 100% 30.28 in 1.5 mi East 3.5 mph - N/A   Unknown
8:15 AM 41.0 °F - 39.2 °F 93% 30.28 in 1.5 mi Calm Calm - N/A   Unknown
8:35 AM 42.8 °F 41.1 °F 41.0 °F 93% 30.28 in 2.5 mi East 3.5 mph - N/A   Clear
8:55 AM 44.6 °F - 42.8 °F 93% 30.28 in 10.0 mi Calm Calm - N/A   Clear
9:15 AM 48.2 °F - 44.6 °F 87% 30.28 in 10.0 mi Calm Calm - N/A   Clear
9:55 AM 57.2 °F - 46.4 °F 67% 30.29 in 10.0 mi South 3.5 mph - N/A   Clear
10:15 AM 59.0 °F - 48.2 °F 67% 30.28 in 10.0 mi SSE 6.9 mph - N/A   Clear
10:35 AM 62.6 °F - 48.2 °F 59% 30.28 in 10.0 mi South 8.1 mph - N/A   Clear
10:55 AM 64.4 °F - 50.0 °F 59% 30.28 in 10.0 mi South 6.9 mph - N/A   Clear
11:35 AM 64.4 °F - 51.8 °F 64% 30.26 in 10.0 mi South 10.4 mph 18.4 mph N/A   Clear
11:55 AM 66.2 °F - 53.6 °F 64% 30.25 in 10.0 mi South 12.7 mph 18.4 mph N/A   Clear
12:35 PM 69.8 °F - 53.6 °F 56% 30.24 in 10.0 mi SSW 13.8 mph 21.9 mph N/A   Clear
12:55 PM 69.8 °F - 53.6 °F 56% 30.23 in 10.0 mi SSW 12.7 mph 17.3 mph N/A   Clear
1:15 PM 69.8 °F - 53.6 °F 56% 30.24 in 10.0 mi SW 12.7 mph 19.6 mph N/A   Scattered Clouds
1:35 PM 71.6 °F - 53.6 °F 53% 30.23 in 10.0 mi SSW 10.4 mph 19.6 mph N/A   Mostly Cloudy
1:55 PM 73.4 °F - 55.4 °F 53% 30.22 in 10.0 mi SSW 10.4 mph 17.3 mph N/A   Scattered Clouds
2:15 PM 73.4 °F - 55.4 °F 53% 30.21 in 10.0 mi SW 9.2 mph - N/A   Clear
2:35 PM 73.4 °F - 55.4 °F 53% 30.20 in 10.0 mi SSW 10.4 mph 16.1 mph N/A   Clear
2:55 PM 73.4 °F - 55.4 °F 53% 30.19 in 10.0 mi SSW 11.5 mph - N/A   Clear
3:15 PM 75.2 °F - 55.4 °F 50% 30.17 in 10.0 mi SSW 13.8 mph - N/A   Clear
3:35 PM 75.2 °F - 55.4 °F 50% 30.16 in 10.0 mi SSW 10.4 mph 17.3 mph N/A   Clear
3:55 PM 75.2 °F - 57.2 °F 53% 30.16 in 10.0 mi SW 10.4 mph - N/A   Mostly Cloudy
4:15 PM 75.2 °F - 55.4 °F 50% 30.15 in 10.0 mi SSW 12.7 mph 16.1 mph N/A   Overcast
5:15 PM 73.4 °F - 57.2 °F 57% 30.15 in 10.0 mi SW 5.8 mph - N/A   Overcast
5:35 PM 73.4 °F - 55.4 °F 53% 30.15 in 10.0 mi SSW 9.2 mph - N/A   Overcast
6:15 PM 71.6 °F - 57.2 °F 60% 30.14 in 10.0 mi South 3.5 mph - N/A   Overcast
6:35 PM 71.6 °F - 57.2 °F 60% 30.14 in 7.0 mi South 3.5 mph - N/A   Overcast
7:15 PM 71.6 °F - 57.2 °F 60% 30.14 in 10.0 mi South 4.6 mph - N/A   Overcast
7:35 PM 69.8 °F - 57.2 °F 64% 30.15 in 10.0 mi SSE 3.5 mph - N/A   Overcast
8:15 PM 69.8 °F - 57.2 °F 64% 30.15 in 10.0 mi South 8.1 mph - N/A   Overcast
8:35 PM 69.8 °F - 55.4 °F 60% 30.15 in 10.0 mi South 8.1 mph - N/A   Overcast
8:55 PM 69.8 °F - 55.4 °F 60% 30.15 in 10.0 mi South 8.1 mph - N/A   Mostly Cloudy
9:15 PM 68.0 °F - 55.4 °F 64% 30.15 in 10.0 mi South 10.4 mph - N/A   Mostly Cloudy
9:35 PM 68.0 °F - 55.4 °F 64% 30.14 in 10.0 mi South 9.2 mph - N/A   Scattered Clouds
9:55 PM 68.0 °F - 55.4 °F 64% 30.13 in 10.0 mi South 12.7 mph 16.1 mph N/A   Clear
10:15 PM 68.0 °F - 55.4 °F 64% 30.13 in 10.0 mi South 12.7 mph - N/A   Clear
11:15 PM 66.2 °F - 53.6 °F 64% 30.12 in 10.0 mi South 13.8 mph 18.4 mph N/A   Scattered Clouds